Location: ?????????
(41.1143°N, 22.7905°E)
Time: 09:25:02
(UTC+00:00)

COSMO-SKYMED 1 - Pass Details

Date: 16 March 2026
Orbit: 576 x 578 km, 97.9° (Epoch: 19 April)

Event Time Altitude Azimuth Distance (km) Brightness Sun altitude
Rises 16:58:26 0° 13° (NNE) 2,800 5.8 -5.0°
Reaches altitude 10° 17:00:36 10° 13° (NNE) 1,896 5.0 -5.4°
Maximum altitude 17:04:43 86° 100° (E) 584 2.4 -6.1°
Drops below altitude 10° 17:08:48 10° 192° (SSW) 1,880 5.2 -6.9°
Sets 17:10:56 0° 193° (SSW) 2,773 6.0 -7.3°
